TimeEST,TemperatureF,Dew PointF,Humidity,Sea Level PressureIn,VisibilityMPH,Wind Direction,Wind SpeedMPH,Gust SpeedMPH,PrecipitationIn,Events,Conditions,WindDirDegrees,DateUTC
12:15 AM,35.6,31.1,84,29.72,10.0,West,8.1,-,N/A,,Overcast,270,2014-01-14 05:15:00
12:35 AM,34.9,30.9,85,29.72,7.0,West,6.9,-,N/A,,Overcast,270,2014-01-14 05:35:00
12:55 AM,34.7,30.6,85,29.72,7.0,West,10.4,16.1,N/A,,Overcast,270,2014-01-14 05:55:00
1:15 AM,34.7,30.2,84,29.73,10.0,West,13.8,-,N/A,,Overcast,270,2014-01-14 06:15:00
1:35 AM,34.2,29.3,82,29.73,10.0,West,11.5,19.6,N/A,,Overcast,280,2014-01-14 06:35:00
1:54 AM,33.8,28.9,82,29.74,10.0,West,13.8,18.4,N/A,,Overcast,280,2014-01-14 06:54:00
2:15 AM,32.5,27.7,82,29.74,10.0,West,9.2,-,N/A,,Mostly Cloudy,280,2014-01-14 07:15:00
2:35 AM,31.8,26.8,82,29.75,10.0,West,9.2,-,N/A,,Scattered Clouds,280,2014-01-14 07:35:00
2:55 AM,30.6,26.1,83,29.75,10.0,West,5.8,-,N/A,,Clear,270,2014-01-14 07:55:00
3:15 AM,30.2,26.1,85,29.75,10.0,West,3.5,-,N/A,,Clear,260,2014-01-14 08:15:00
3:35 AM,30.0,25.7,84,29.75,7.0,West,3.5,-,N/A,,Clear,260,2014-01-14 08:35:00
3:55 AM,29.7,25.5,85,29.76,7.0,Calm,Calm,-,N/A,,Clear,0,2014-01-14 08:55:00
4:15 AM,29.1,25.5,86,29.75,7.0,SW,3.5,-,N/A,,Clear,220,2014-01-14 09:15:00
4:35 AM,28.6,25.2,87,29.75,7.0,SW,3.5,-,N/A,,Clear,230,2014-01-14 09:35:00
4:55 AM,28.4,24.8,86,29.75,7.0,SW,3.5,-,N/A,,Clear,220,2014-01-14 09:55:00
5:15 AM,26.2,23.0,88,29.75,5.0,South,4.6,-,N/A,,Clear,190,2014-01-14 10:15:00
5:35 AM,26.4,23.5,89,29.75,5.0,SW,3.5,-,N/A,,Clear,220,2014-01-14 10:35:00
5:55 AM,25.5,22.8,89,29.74,5.0,South,4.6,-,N/A,,Clear,180,2014-01-14 10:55:00
6:14 AM,25.7,23.0,89,29.74,5.0,South,4.6,-,N/A,,Clear,190,2014-01-14 11:14:00
6:35 AM,25.7,23.4,91,29.75,3.0,SSW,6.9,-,N/A,,Clear,200,2014-01-14 11:35:00
6:55 AM,25.7,23.4,91,29.75,2.5,SSW,5.8,-,N/A,,Clear,200,2014-01-14 11:55:00
7:15 AM,25.7,23.7,92,29.74,2.5,SSW,4.6,-,N/A,,Clear,210,2014-01-14 12:15:00
7:35 AM,25.3,23.0,91,29.75,2.5,SSW,3.5,-,N/A,,Clear,210,2014-01-14 12:35:00
7:55 AM,24.8,22.6,91,29.75,3.0,South,3.5,-,N/A,,Clear,180,2014-01-14 12:55:00
8:15 AM,25.0,23.0,92,29.75,2.0,SSE,4.6,-,N/A,,Clear,160,2014-01-14 13:15:00
8:35 AM,25.5,23.4,92,29.75,2.0,South,6.9,-,N/A,,Clear,170,2014-01-14 13:35:00
8:55 AM,25.7,23.5,92,29.75,2.5,SSE,4.6,-,N/A,,Clear,160,2014-01-14 13:55:00
9:15 AM,26.6,24.3,91,29.75,3.0,SSE,8.1,-,N/A,,Clear,160,2014-01-14 14:15:00
9:34 AM,27.5,24.6,89,29.75,4.0,SSE,8.1,-,N/A,,Clear,160,2014-01-14 14:34:00
9:55 AM,28.6,24.8,86,29.74,5.0,South,6.9,-,N/A,,Clear,170,2014-01-14 14:55:00
10:15 AM,29.7,25.2,83,29.74,5.0,South,10.4,-,N/A,,Clear,170,2014-01-14 15:15:00
10:35 AM,30.2,25.2,82,29.75,5.0,South,8.1,-,N/A,,Haze,180,2014-01-14 15:35:00
10:55 AM,31.5,25.7,79,29.75,7.0,South,12.7,-,N/A,,Clear,180,2014-01-14 15:55:00
11:15 AM,32.0,25.2,76,29.74,10.0,South,11.5,18.4,N/A,,Mostly Cloudy,180,2014-01-14 16:15:00
11:35 AM,32.7,24.8,73,29.73,10.0,SSE,10.4,-,N/A,,Overcast,150,2014-01-14 16:35:00
11:55 AM,32.7,24.4,72,29.72,10.0,South,15.0,18.4,N/A,,Overcast,170,2014-01-14 16:55:00
12:15 PM,33.6,24.4,69,29.70,10.0,SSE,11.5,17.3,N/A,,Overcast,160,2014-01-14 17:15:00
12:35 PM,33.8,24.4,69,29.70,10.0,South,12.7,-,N/A,,Overcast,190,2014-01-14 17:35:00
12:55 PM,33.8,24.4,69,29.69,10.0,South,10.4,-,N/A,,Overcast,180,2014-01-14 17:55:00
1:15 PM,34.7,23.5,64,29.67,10.0,South,10.4,-,N/A,,Overcast,180,2014-01-14 18:15:00
1:35 PM,35.2,23.0,61,29.66,10.0,SSE,6.9,-,N/A,,Overcast,160,2014-01-14 18:35:00
1:55 PM,35.6,22.6,59,29.65,10.0,South,13.8,-,N/A,,Overcast,170,2014-01-14 18:55:00
2:14 PM,36.0,23.0,59,29.64,10.0,South,11.5,-,N/A,,Overcast,170,2014-01-14 19:14:00
2:35 PM,36.5,22.6,57,29.64,10.0,SSW,12.7,18.4,N/A,,Overcast,200,2014-01-14 19:35:00
2:55 PM,36.3,23.5,60,29.64,10.0,South,15.0,20.7,N/A,,Overcast,190,2014-01-14 19:55:00
3:15 PM,36.5,24.1,61,29.65,10.0,SSW,16.1,21.9,N/A,,Overcast,200,2014-01-14 20:15:00
3:35 PM,36.5,25.2,64,29.65,4.0,SW,18.4,25.3,N/A,Snow,Light Snow,220,2014-01-14 20:35:00
3:55 PM,34.9,28.0,76,29.66,1.8,SSW,17.3,21.9,N/A,Snow,Light Snow,210,2014-01-14 20:55:00
4:15 PM,33.3,30.0,88,29.66,0.8,SSW,11.5,18.4,N/A,Snow,Light Snow,210,2014-01-14 21:15:00
4:35 PM,33.1,30.6,90,29.66,2.5,South,11.5,-,N/A,Snow,Light Snow,190,2014-01-14 21:35:00
4:55 PM,33.3,30.9,91,29.66,3.0,SSW,9.2,-,N/A,,Overcast,210,2014-01-14 21:55:00
5:15 PM,33.8,31.1,90,29.67,2.5,SW,13.8,19.6,N/A,,Overcast,220,2014-01-14 22:15:00
5:35 PM,34.2,31.5,90,29.67,7.0,SW,9.2,-,N/A,,Overcast,230,2014-01-14 22:35:00
5:55 PM,34.7,30.7,85,29.68,10.0,WSW,9.2,-,N/A,,Overcast,250,2014-01-14 22:55:00
6:15 PM,32.7,25.7,75,29.70,10.0,West,21.9,34.5,N/A,,Overcast,260,2014-01-14 23:15:00
6:35 PM,31.6,22.6,69,29.72,10.0,West,13.8,26.5,N/A,,Overcast,260,2014-01-14 23:35:00
6:54 PM,31.8,21.7,66,29.72,10.0,WSW,11.5,19.6,N/A,,Overcast,250,2014-01-14 23:54:00
7:15 PM,31.8,22.5,68,29.73,10.0,WSW,6.9,17.3,N/A,,Overcast,240,2014-01-15 00:15:00
7:34 PM,31.8,22.3,68,29.73,10.0,West,10.4,-,N/A,,Overcast,260,2014-01-15 00:34:00
7:55 PM,31.8,22.1,67,29.73,10.0,WSW,12.7,19.6,N/A,,Overcast,250,2014-01-15 00:55:00
8:15 PM,30.7,20.3,65,29.74,7.0,WSW,15.0,31.1,N/A,,Overcast,250,2014-01-15 01:15:00
8:35 PM,30.4,18.7,62,29.75,10.0,WSW,18.4,27.6,N/A,,Overcast,250,2014-01-15 01:35:00
8:55 PM,30.0,19.4,65,29.75,10.0,WSW,9.2,21.9,N/A,,Overcast,240,2014-01-15 01:55:00
9:15 PM,29.7,18.1,62,29.75,10.0,WSW,13.8,29.9,N/A,,Overcast,250,2014-01-15 02:15:00
9:35 PM,28.8,18.3,65,29.75,7.0,WSW,13.8,25.3,N/A,Snow,Light Snow,250,2014-01-15 02:35:00
9:55 PM,28.4,17.6,64,29.76,10.0,WSW,13.8,23.0,N/A,Snow,Light Snow,250,2014-01-15 02:55:00
10:15 PM,28.0,17.6,65,29.76,7.0,WSW,13.8,24.2,N/A,Snow,Light Snow,250,2014-01-15 03:15:00
10:35 PM,27.5,18.9,70,29.77,4.0,WSW,12.7,20.7,N/A,Snow,Light Snow,240,2014-01-15 03:35:00
10:55 PM,26.6,19.4,74,29.76,7.0,SW,12.7,19.6,N/A,Snow,Light Snow,230,2014-01-15 03:55:00
11:15 PM,26.2,20.3,78,29.76,7.0,SW,15.0,18.4,N/A,Snow,Light Snow,220,2014-01-15 04:15:00
11:35 PM,26.4,19.4,75,29.76,7.0,SW,16.1,24.2,N/A,Snow,Light Snow,220,2014-01-15 04:35:00
11:55 PM,26.2,19.0,74,29.76,7.0,WSW,11.5,18.4,N/A,Snow,Light Snow,240,2014-01-15 04:55:00